Wind_Speed
34 34 35 36 37 40 42 45 49 53 56 56 54 52 52 50 49 48 47 47 47 47 47 49 50 49 49 49 50 51 52 53 53 53 53 54 54 54 53 52 52 53 53 54 54 53 51 49 48 48 46 45 45 44 43 44 43 42 41 41 41 43 44 43 43 41 40 40 38 36 36 36 36 37
36 36 36 37 37 38 39 41 43 47 52 55 56 55 55 53 51 49 48 48 49 48 48 50 52 52 51 51 52 53 54 55 56 56 56 56 56 56 55 54 53 53 53 54 55 55 54 52 51 49 48 47 48 49 47 45 45 45 45 44 44 45 46 47 47 46 44 43 42 43 42 41 40 40
39 38 37 38 38 39 40 40 41 43 45 49 53 55 56 56 54 53 51 50 50 51 50 51 53 55 55 54 54 54 55 56 58 58 59 59 59 58 58 56 55 54 54 54 55 56 56 55 54 53 51 50 51 51 50 49 48 47 47 47 47 47 47 48 49 49 47 47 47 48 48 46 44 42
41 40 39 39 40 40 41 41 42 42 43 45 47 51 55 57 57 57 56 55 54 54 54 53 53 56 58 58 57 56 57 57 58 59 60 61 61 60 59 58 57 56 55 55 55 56 56 56 57 56 55 54 53 52 52 52 51 50 49 49 49 49 50 50 50 49 48 49 50 51 50 49 47 44
45 43 43 42 42 42 42 43 43 43 44 44 45 47 50 54 58 60 60 58 56 56 56 56 56 56 58 60 60 59 59 59 59 59 59 60 61 62 61 59 58 57 56 55 55 55 55 55 57 58 58 57 56 55 55 55 55 53 52 52 52 52 53 53 52 52 51 51 52 52 51 50 48 46
48 47 46 46 45 45 45 44 44 44 44 45 45 46 47 50 53 58 60 60 58 57 57 59 59 59 59 60 62 62 62 61 61 61 61 61 61 62 62 61 60 58 57 57 56 56 56 55 55 56 58 58 58 58 58 58 59 58 56 56 55 55 55 55 54 54 53 53 54 54 53 52 51 50
52 51 50 50 49 48 48 48 47 47 46 46 46 47 48 48 50 53 56 59 59 59 58 58 60 61 62 62 63 64 64 64 64 64 63 63 63 63 63 63 62 61 60 59 59 58 58 57 56 56 57 58 59 59 59 60 61 61 60 59 58 57 57 56 56 56 55 55 55 56 55 55 54 53
54 54 54 53 53 52 52 51 51 50 50 49 49 48 49 50 50 51 53 55 57 59 59 59 60 61 62 63 64 65 66 66 66 67 67 67 66 66 65 65 64 63 63 62 61 61 61 61 60 59 58 58 58 59 59 60 61 61 60 60 59 59 59 59 58 58 58 58 58 58 58 58 57 57
56 56 56 56 56 55 55 54 54 54 54 54 53 53 52 52 52 53 53 54 56 57 59 60 60 61 63 63 63 64 66 67 68 69 70 70 69 69 68 68 67 67 66 65 65 65 65 65 64 63 62 60 60 60 60 60 61 61 61 61 61 61 61 61 61 61 61 60 61 61 61 60 60 59
58 58 58 59 58 58 58 58 57 57 57 56 57 57 57 56 55 55 55 56 57 58 59 59 60 62 63 64 64 64 65 67 68 70 72 72 73 73 72 71 71 70 70 70 70 70 69 69 68 67 66 64 63 63 63 63 63 63 63 63 63 64 64 64 64 64 63 63 63 64 64 63 63 62
60 60 60 61 61 61 61 61 61 60 60 59 60 60 60 60 60 59 59 58 58 59 60 61 61 62 63 64 65 65 65 66 68 69 71 73 74 75 76 75 74 73 73 73 73 73 73 73 72 71 70 68 67 67 67 67 67 67 67 67 67 67 67 67 67 67 67 67 67 67 67 66 65 64
60 61 62 63 63 64 64 64 64 63 62 63 64 63 63 62 63 63 63 62 62 62 62 62 63 64 64 64 65 66 66 66 67 69 70 72 74 75 76 77 76 77 77 77 77 76 76 76 76 75 74 73 71 71 71 71 71 71 71 71 70 70 70 69 69 69 68 69 68 68 68 68 67 66
62 63 64 65 66 67 66 66 65 65 65 66 67 67 67 66 66 66 65 65 65 65 65 65 65 65 65 66 66 67 66 67 68 68 69 71 73 74 76 77 77 78 80 81 80 80 78 78 78 78 77 76 75 74 73 73 73 73 73 73 73 73 72 72 71 70 70 70 70 69 69 69 69 68
64 65 67 68 68 69 69 68 68 68 68 68 68 69 69 70 70 69 69 68 68 68 69 69 69 69 69 68 68 68 68 68 69 69 69 70 72 73 75 77 77 77 79 82 83 83 82 80 80 81 80 79 78 77 76 75 75 75 76 75 75 74 74 73 73 73 72 72 71 71 71 71 70 69
65 67 69 70 70 71 71 71 71 71 72 72 71 71 72 73 73 73 72 72 71 71 72 72 72 72 73 72 71 71 70 70 70 70 71 71 72 73 74 76 77 77 78 80 82 84 85 83 83 84 83 82 81 80 79 79 79 79 80 79 79 78 77 76 76 76 75 74 73 72 72 72 72 71
66 68 70 70 72 74 73 73 73 74 74 75 75 75 75 76 76 76 76 75 75 75 75 76 76 76 75 76 76 75 74 74 73 73 73 72 73 74 74 76 77 77 77 77 80 83 85 85 85 86 87 86 84 83 82 82 82 82 82 82 82 82 82 81 81 81 81 80 79 77 76 76 76 75
66 68 68 68 70 72 72 72 73 74 75 76 77 76 76 77 78 79 79 78 77 77 78 78 79 79 79 79 79 79 78 77 77 77 77 76 75 75 75 76 77 79 78 76 77 80 84 84 83 85 88 88 87 86 86 86 86 86 85 85 85 85 85 85 84 84 84 84 84 83 82 81 80 79
67 69 69 68 68 69 69 69 71 72 73 76 77 76 76 76 77 79 80 80 79 79 79 80 81 82 82 82 82 82 81 81 81 81 80 80 79 79 79 78 78 80 80 78 76 78 82 84 82 82 85 87 86 86 86 87 88 88 89 89 88 88 88 88 87 87 86 86 85 85 84 83 82 81
70 72 72 70 70 70 68 68 69 71 73 75 76 76 76 76 76 77 78 79 79 79 80 81 82 84 85 85 85 85 85 85 84 84 83 83 83 83 82 82 82 83 83 81 78 77 81 84 83 83 84 85 84 85 85 86 87 88 88 89 90 90 91 91 91 91 90 90 90 89 88 87 85 84
73 74 74 73 73 72 70 69 70 71 73 75 75 75 76 77 77 77 77 78 79 79 80 80 82 84 85 86 87 88 89 88 88 87 86 87 87 85 85 85 86 87 87 86 83 80 81 84 84 84 84 84 84 85 84 85 86 87 88 88 89 89 90 91 91 91 92 92 93 93 93 92 91 89
76 76 77 77 76 76 74 73 73 74 75 75 74 75 76 78 79 80 81 81 82 82 82 83 84 84 85 85 87 89 90 91 91 90 89 90 90 88 87 88 89 90 91 91 90 86 84 86 87 86 86 85 85 85 85 85 85 86 87 88 89 89 90 90 91 91 91 92 92 93 93 93 93 92
78 78 78 79 79 79 78 78 78 78 78 77 76 76 77 78 80 82 84 85 86 87 87 87 87 87 87 87 87 88 90 91 92 92 91 92 92 91 91 90 91 92 93 95 94 91 88 89 90 90 90 89 88 88 88 88 87 86 86 86 87 89 90 90 91 92 92 92 92 92 92 92 91 91
79 80 80 80 81 81 81 82 81 81 81 80 80 80 80 80 82 83 84 86 87 87 88 87 87 88 89 89 89 89 90 91 93 93 93 93 93 93 93 93 93 93 95 98 98 95 93 92 92 92 92 93 93 93 92 91 91 90 89 88 88 88 89 90 91 91 92 92 92 92 92 91 91 90
80 81 81 81 81 82 83 83 83 83 83 83 83 83 84 85 86 86 86 87 87 87 87 86 86 86 87 89 90 91 92 92 94 94 94 94 94 93 94 94 95 95 97 99 101 99 97 96 96 95 94 95 96 96 96 95 95 94 93 92 91 90 90 91 91 92 92 92 92 92 92 91 91 90
80 81 81 82 82 83 83 84 83 83 84 84 84 85 86 87 88 88 89 90 90 89 88 88 88 87 87 88 89 90 91 92 93 95 96 96 96 95 95 95 95 95 96 99 101 101 100 100 99 99 98 97 98 99 99 99 98 98 98 97 96 94 94 94 94 95 95 95 94 94 93 93 92 91
79 80 81 82 82 83 83 83 83 84 85 85 86 86 86 87 87 88 89 90 90 89 89 89 89 89 89 89 89 89 89 90 92 93 94 96 97 97 97 97 97 96 97 99 100 101 101 102 102 102 101 100 100 100 101 102 102 102 101 100 99 99 98 97 97 97 98 98 98 98 97 96 95 94
77 78 79 80 81 82 82 83 84 85 86 86 86 86 86 86 86 87 86 86 86 87 87 87 88 88 89 89 89 90 90 90 91 92 93 94 95 96 96 96 96 97 98 99 100 101 101 102 103 103 103 103 102 102 102 103 104 105 104 103 102 102 101 101 100 100 101 101 102 101 101 100 99 98
75 76 77 78 80 81 81 82 83 84 85 85 85 85 85 85 85 85 84 83 83 83 83 83 84 85 86 87 88 89 90 90 91 91 91 92 93 94 94 95 95 95 96 98 99 100 101 101 101 103 103 103 103 103 103 104 105 106 106 105 105 104 104 104 103 103 104 104 104 103 102 102 101 101
70 71 73 75 77 78 79 81 82 82 83 83 83 83 84 83 83 82 81 80 79 79 79 79 80 81 83 84 85 86 87 88 88 88 89 89 90 90 90 91 91 92 92 93 95 96 97 98 99 100 102 103 103 103 103 104 105 106 107 107 106 106 106 106 106 106 106 106 105 104 104 104 103 103
64 66 68 70 72 74 75 76 77 78 79 80 80 81 81 81 81 79 78 77 76 76 76 76 76 78 79 80 82 83 84 84 85 84 84 84 84 84 84 84 84 85 85 86 87 88 90 92 94 96 97 99 101 102 103 103 104 105 107 107 107 106 106 106 107 108 107 107 106 106 105 105 105 105
62 63 64 65 66 68 69 70 71 72 73 74 75 75 75 76 76 75 74 74 73 72 72 72 73 74 75 76 77 79 79 80 80 80 79 78 78 78 77 77 77 78 78 78 79 80 81 82 85 88 90 93 96 98 100 101 102 104 106 107 106 105 104 105 106 107 107 107 106 106 105 105 105 105
61 62 62 62 62 62 63 64 65 65 66 67 67 68 68 68 68 68 68 68 67 67 67 67 68 70 71 72 74 75 75 75 75 75 74 73 73 73 72 71 72 73 73 73 74 73 73 74 77 79 82 85 88 91 94 96 97 99 102 104 104 102 101 101 102 103 104 104 104 104 104 103 103 103
60 60 59 59 59 59 59 59 60 60 60 61 61 61 61 61 61 61 61 61 61 62 62 63 65 66 68 69 70 70 70 69 70 69 69 68 68 67 67 67 67 68 68 69 69 68 68 68 69 71 74 77 80 83 87 89 92 94 97 99 99 98 98 97 97 98 98 99 99 100 101 101 100 100
58 58 57 57 56 56 56 55 56 56 56 56 56 55 55 55 55 55 55 56 56 58 60 61 62 63 63 63 64 64 64 64 65 64 63 62 62 62 62 62 62 63 62 62 63 63 62 62 62 63 65 68 71 75 79 82 85 88 89 90 91 92 93 93 93 92 92 92 93 94 95 96 97 97
56 55 55 54 54 53 53 53 52 52 51 51 51 50 50 50 49 50 51 52 53 55 56 57 57 57 57 57 58 59 59 59 59 59 58 57 56 57 57 57 58 58 57 56 57 57 56 55 54 54 56 60 63 66 70 73 76 78 79 80 81 82 83 85 85 84 84 84 85 86 87 89 91 92
53 52 52 52 51 51 50 49 48 47 47 46 46 45 45 46 46 46 47 49 50 51 51 51 51 52 53 53 53 54 54 54 54 53 53 52 51 52 53 53 54 54 53 52 52 50 48 48 47 47 49 51 54 58 61 63 64 66 68 69 71 72 74 75 75 75 76 76 77 77 79 81 83 84
51 50 49 49 48 47 46 45 45 44 43 42 42 42 42 43 44 45 45 46 46 46 47 47 48 49 49 49 49 49 49 49 49 48 48 47 47 47 48 48 49 49 49 48 47 46 44 44 43 42 43 44 46 50 52 51 50 54 58 61 63 65 66 66 66 66 67 68 68 69 71 72 74 75
49 48 47 46 45 44 44 43 42 40 40 39 40 41 41 42 43 44 43 42 43 44 44 44 45 45 45 46 46 46 45 45 45 44 44 44 44 43 43 43 43 44 45 45 44 43 42 42 40 40 41 42 43 45 45 42 43 47 52 56 58 58 58 58 59 59 60 60 61 62 63 64 65 66
47 46 45 44 43 43 42 41 40 39 38 39 39 40 41 41 41 41 40 40 41 42 42 42 42 42 43 43 42 42 42 41 41 40 39 39 38 38 38 38 37 38 39 39 39 39 38 38 37 37 38 40 41 42 41 40 42 46 49 51 52 52 51 52 53 53 53 54 54 54 55 56 57 58
45 44 44 43 43 42 41 40 38 38 38 38 38 38 38 39 39 38 38 38 39 39 39 40 39 39 39 39 38 38 37 36 35 34 33 33 32 32 32 32 33 33 34 34 34 34 34 34 34 34 35 36 37 37 38 39 41 42 44 46 48 48 47 48 48 49 49 49 49 50 51 52 53 54
43 43 43 43 42 41 40 39 38 37 37 37 36 35 35 35 35 35 35 35 36 36 36 36 35 35 34 34 33 32 31 30 29 29 29 29 29 29 29 30 30 30 30 30 30 30 31 31 31 31 32 32 33 34 35 36 36 37 39 42 44 43 43 44 44 45 46 46 47 48 48 49 50 52
43 42 42 41 41 40 39 38 37 36 36 35 33 33 32 32 32 33 33 33 33 32 31 31 30 30 29 29 28 28 27 26 26 26 27 27 27 27 28 28 28 28 28 27 27 27 28 29 29 29 29 30 30 31 32 32 32 33 36 38 40 40 40 41 41 42 43 44 44 45 45 46 48 49
42 41 41 41 40 39 38 37 36 35 34 32 31 30 30 30 30 30 30 29 29 28 27 26 26 25 26 26 26 25 24 24 25 25 25 25 25 26 26 26 26 26 25 25 24 24 25 26 26 27 27 27 28 28 28 28 28 30 32 34 36 37 37 38 39 39 39 39 40 42 43 43 44 46
40 40 40 40 39 38 36 35 35 34 31 30 29 28 28 27 27 26 26 25 24 23 23 22 22 23 24 25 24 24 23 23 24 24 24 24 24 24 24 24 24 24 24 23 22 22 22 22 23 23 24 24 25 25 24 24 25 27 28 30 31 32 34 34 34 34 34 35 37 38 38 39 40 41
39 39 38 38 37 36 34 33 33 31 29 27 27 26 25 25 24 23 22 21 20 20 20 20 21 22 22 22 22 22 22 22 22 22 22 22 21 21 21 21 21 21 21 21 21 20 20 20 20 20 21 21 22 22 22 22 23 24 25 26 27 28 29 30 29 29 29 31 32 33 33 34 35 37
Wind_Direction
256 254 251 248 246 244 242 242 242 242 241 242 243 244 243 241 241 243 245 246 247 247 247 245 242 240 239 239 240 242 242 242 241 241 242 242 242 243 244 246 247 249 249 250 251 252 251 250 249 247 247 248 249 249 246 245 247 248 247 246 246 246 247 250 253 255 258 260 260 261 263 265 266 265
259 258 256 254 251 248 246 245 244 243 243 243 244 244 244 243 241 241 243 245 246 246 246 245 243 241 239 238 238 239 240 242 243 243 244 244 245 245 246 247 247 248 249 251 252 253 254 253 250 247 247 247 248 249 248 246 247 249 250 250 249 248 248 250 252 253 255 259 261 263 265 267 266 265
257 258 259 258 256 254 252 250 249 247 245 244 244 244 243 244 242 241 242 244 245 245 245 244 243 242 241 240 240 239 240 241 242 243 244 245 246 247 248 248 249 249 249 251 252 253 253 253 252 249 247 246 246 247 248 247 247 248 249 251 252 252 252 252 254 255 255 256 258 260 263 265 265 265
254 255 256 257 257 257 256 255 254 252 250 248 247 245 244 244 243 242 243 244 244 243 243 243 243 242 242 242 242 241 241 241 242 243 244 245 245 246 247 248 248 249 250 250 250 251 252 252 251 250 248 247 246 245 246 246 246 247 248 250 251 253 255 256 256 257 256 256 256 257 259 262 264 265
252 252 253 253 254 255 256 257 257 256 255 253 251 250 248 246 244 244 244 244 243 242 241 241 242 242 241 242 242 242 243 243 243 244 244 244 245 246 246 246 246 247 248 249 249 250 250 250 250 249 249 248 247 246 245 245 246 248 249 250 251 253 255 256 258 258 256 255 256 257 258 260 262 263
252 251 251 251 252 253 255 256 257 257 257 256 255 253 251 250 248 246 246 246 244 243 241 241 241 241 241 241 242 243 244 244 244 245 245 245 246 246 246 246 246 245 245 246 247 249 250 251 250 249 248 248 247 246 245 245 246 248 250 251 251 252 254 255 256 257 257 256 256 257 258 259 261 261
252 251 251 251 251 252 253 254 256 257 257 257 256 255 254 253 251 249 247 246 245 244 243 242 241 241 241 241 242 243 245 245 245 246 246 246 247 247 247 246 246 245 245 245 246 248 250 251 252 252 250 249 248 247 246 246 247 248 250 251 251 253 254 255 255 255 256 256 256 257 259 260 261 262
252 252 251 251 251 251 252 252 254 255 257 257 257 257 255 254 253 252 250 248 247 246 245 244 243 242 242 242 242 243 244 245 246 246 247 247 247 247 248 248 248 247 247 247 247 248 250 251 252 253 253 252 251 249 248 248 248 249 250 250 251 253 254 256 256 255 255 255 256 257 258 260 261 262
254 254 253 253 252 252 253 253 253 253 255 255 256 256 256 255 254 253 252 251 249 248 247 246 246 245 245 244 244 244 244 244 245 246 246 247 247 248 248 248 248 248 249 249 249 249 250 251 252 253 254 254 253 253 252 251 250 250 250 250 251 252 254 255 256 256 256 256 256 256 257 258 259 261
255 255 256 255 254 253 253 253 253 253 253 254 254 255 255 255 255 254 253 252 251 250 249 249 248 248 248 247 246 246 245 245 244 245 245 246 246 247 248 248 248 248 249 249 250 250 251 251 251 252 252 253 253 253 253 253 252 251 251 251 251 252 253 255 256 256 257 257 257 257 257 258 259 259
257 256 256 256 256 255 254 253 253 253 253 253 253 254 254 254 254 254 254 253 253 252 251 250 250 249 249 249 249 248 247 246 246 245 245 246 246 247 247 247 247 248 249 249 250 251 251 252 252 252 252 252 252 252 252 253 253 253 253 252 252 252 253 254 255 256 256 257 257 257 258 258 259 260
260 258 257 257 256 256 255 254 254 254 254 254 254 253 253 253 253 253 254 254 254 253 252 252 251 250 249 250 250 250 250 249 248 247 246 246 246 247 247 247 247 247 248 249 250 251 251 252 253 254 254 254 253 252 252 252 252 253 253 253 253 253 254 254 255 255 256 257 257 258 258 259 259 260
260 258 257 257 257 256 256 256 255 255 255 255 255 254 253 253 252 252 253 253 254 254 254 254 253 252 250 250 250 250 250 250 250 250 249 248 247 247 247 248 248 248 248 249 249 250 251 251 252 253 254 254 255 255 254 254 254 253 253 253 253 253 253 254 254 254 255 256 257 257 258 259 260 260
259 258 256 256 256 256 256 256 256 256 256 256 256 255 254 254 254 253 252 252 253 253 254 254 254 254 253 251 250 250 250 250 250 251 251 250 250 249 249 248 248 248 249 250 250 250 250 251 251 252 253 253 254 254 255 256 256 256 257 257 257 256 256 255 255 255 255 255 256 256 257 258 259 260
256 256 256 256 257 256 255 255 256 256 256 256 256 256 256 256 255 255 254 253 253 253 253 254 254 254 254 254 252 252 251 251 250 251 251 251 251 251 251 251 250 248 248 249 251 251 251 250 251 252 252 253 253 253 254 254 255 255 256 258 260 261 261 261 261 262 262 261 261 261 262 262 263 264
253 252 254 255 256 256 255 254 255 255 256 256 256 257 257 257 257 257 256 255 254 253 253 253 253 253 253 254 254 253 253 253 252 252 251 251 251 251 251 251 252 251 249 248 250 252 252 251 250 252 253 253 253 254 255 255 255 254 254 255 256 258 260 261 263 264 265 265 266 266 266 267 267 268
257 255 254 253 255 256 255 255 255 255 255 255 256 256 256 257 258 257 257 256 255 255 254 253 253 253 252 253 254 253 253 253 253 253 253 252 252 252 252 251 252 253 251 250 249 251 253 252 251 251 252 253 253 254 255 255 256 256 256 255 255 256 256 258 259 261 262 263 264 265 265 266 266 267
264 262 259 256 255 254 254 253 254 254 255 255 255 255 256 257 257 257 256 255 255 255 255 254 253 253 253 253 253 253 253 252 253 253 253 253 253 253 253 253 253 253 253 252 250 250 252 253 252 251 252 253 253 253 254 255 256 256 257 257 257 257 257 257 257 258 259 260 261 262 263 263 264 264
264 264 263 261 260 257 255 253 253 253 254 254 255 256 256 256 256 256 255 255 255 255 255 255 255 255 254 253 253 254 254 253 252 253 253 253 254 254 254 254 254 254 254 254 252 250 251 253 253 253 253 253 253 253 253 254 255 256 257 257 258 258 258 258 258 258 259 260 260 261 262 263 263 263
264 264 265 264 264 262 260 258 256 256 255 255 255 256 256 256 256 256 255 255 255 255 256 257 257 256 256 256 255 255 255 254 253 253 253 253 254 254 254 254 255 255 255 255 254 252 251 253 254 254 254 254 254 254 254 254 254 255 256 257 258 258 259 259 260 260 260 260 261 261 262 263 263 263
262 263 265 265 265 265 264 263 261 260 259 258 257 257 257 257 257 257 256 256 256 256 258 258 258 257 257 257 256 256 256 255 255 254 254 254 254 254 254 254 255 255 256 256 255 253 252 253 255 255 255 255 255 255 255 255 255 255 255 256 257 258 258 259 260 260 261 261 261 262 262 263 264 264
260 261 262 264 265 265 265 264 264 264 263 263 262 260 259 259 259 258 258 258 257 258 258 259 258 257 256 256 256 256 256 256 256 255 254 254 254 254 254 254 254 255 256 256 256 254 253 253 254 255 256 256 256 256 256 256 256 256 256 256 256 257 257 258 259 259 260 260 261 262 263 263 264 265
261 261 261 261 262 263 263 263 263 263 263 263 263 263 263 262 261 261 260 260 260 260 259 259 258 257 256 256 256 256 256 256 256 255 255 255 255 255 255 255 255 255 256 257 257 256 255 254 254 255 256 257 257 257 257 257 257 257 256 256 256 257 258 258 259 259 259 260 260 261 261 262 263 263
261 261 261 261 261 262 262 262 263 263 262 262 262 262 262 262 262 263 263 262 262 262 262 261 260 259 258 257 256 256 256 256 256 256 255 255 255 255 255 256 256 256 256 258 258 258 257 256 255 255 255 256 257 258 258 258 258 258 258 257 257 257 258 259 259 260 260 260 260 260 260 261 261 261
261 261 262 262 262 262 262 263 263 263 263 263 262 262 261 261 261 262 262 263 263 263 264 264 263 262 261 260 259 258 258 257 257 256 256 256 255 255 255 255 255 255 256 257 258 259 259 258 258 257 256 255 256 257 258 258 258 259 259 259 259 258 258 258 259 260 261 261 261 261 261 261 261 261
261 261 262 262 263 263 264 264 264 264 264 264 263 263 262 262 262 261 261 262 263 263 263 264 264 264 263 263 262 261 260 259 258 258 257 257 257 256 255 255 255 254 255 255 257 257 258 259 259 258 258 257 256 256 257 258 258 258 258 259 259 259 259 259 259 259 260 261 261 262 262 262 262 263
261 262 262 262 263 263 264 264 264 264 264 264 264 265 265 265 264 264 263 263 264 264 264 264 264 264 264 264 264 263 262 261 260 259 259 258 258 257 257 256 255 255 255 255 255 256 256 257 258 258 258 258 258 258 258 258 259 259 259 258 258 259 259 259 259 259 260 260 261 261 262 263 263 263
262 262 263 263 263 263 264 264 264 265 265 266 266 266 266 266 266 266 266 266 266 266 266 266 266 266 266 265 265 264 263 263 262 261 260 260 259 259 258 257 257 256 255 255 255 256 256 256 256 257 258 258 258 258 258 258 259 259 260 259 259 259 259 259 259 259 259 259 260 261 262 263 263 263
263 263 263 263 263 263 263 263 264 264 265 266 266 267 267 267 268 268 268 268 268 268 268 268 267 267 266 266 265 265 264 264 264 263 262 261 261 260 260 259 259 258 257 257 256 256 256 256 256 257 258 258 258 258 258 257 258 258 259 259 259 260 260 260 259 259 259 259 259 260 261 261 262 263
266 265 264 263 263 263 263 263 264 264 265 265 266 266 267 268 269 269 270 270 270 270 270 269 269 268 267 267 266 266 265 265 265 265 264 264 263 263 263 262 262 262 261 260 258 257 257 257 256 256 256 257 257 257 257 257 257 257 258 258 258 258 259 259 260 260 260 260 260 260 260 260 261 262
268 267 265 264 264 264 264 264 264 264 265 265 266 266 267 268 269 270 270 271 271 270 270 270 269 268 268 267 267 266 266 266 265 265 266 266 266 266 265 265 265 265 264 263 261 259 258 257 256 256 255 255 255 256 256 256 257 257 258 258 257 257 257 258 259 260 260 261 261 261 261 261 261 262
270 269 268 267 266 266 266 265 265 266 266 266 267 267 268 268 269 269 270 270 270 270 269 269 268 267 267 266 265 265 265 266 267 267 268 268 269 269 269 269 269 268 267 266 264 262 260 257 256 255 255 254 254 254 254 255 255 255 256 257 258 257 257 257 257 258 259 260 261 262 262 263 263 263
270 270 269 269 268 268 268 268 268 268 268 268 268 269 269 269 270 270 270 270 269 269 268 266 266 265 265 265 266 267 268 269 270 271 271 271 271 271 271 270 269 268 267 266 265 263 261 258 256 254 254 254 254 254 254 254 254 254 254 255 257 258 258 258 257 257 258 258 259 260 261 262 263 263
270 271 271 271 271 270 270 270 270 270 270 270 270 270 270 270 270 270 269 268 267 266 265 265 265 265 266 268 269 270 271 271 272 272 272 272 272 272 271 270 268 267 266 265 265 264 262 261 259 257 255 254 253 253 253 253 253 254 254 255 256 257 258 258 258 258 258 258 258 259 260 261 261 262
271 272 272 272 272 272 272 272 272 272 272 272 272 272 271 270 269 268 268 267 266 265 265 267 268 269 270 271 271 271 272 272 273 274 274 273 273 272 272 271 270 269 268 267 266 265 265 263 261 259 257 255 254 253 253 252 253 254 255 255 256 256 257 257 258 258 258 257 257 257 257 258 259 260
273 273 274 274 274 274 274 274 275 275 274 274 273 273 272 271 269 268 267 266 266 267 269 270 271 271 272 272 272 273 274 274 274 274 274 274 273 272 271 271 270 270 270 270 269 268 267 265 263 260 257 255 254 253 252 252 252 254 255 255 255 255 255 256 256 256 256 256 256 255 255 256 257 258
274 274 274 275 275 276 276 277 276 276 275 275 275 274 273 272 271 269 268 268 269 271 271 272 272 273 273 274 274 274 275 275 275 275 275 274 273 271 270 270 270 270 271 271 271 271 270 267 265 261 258 255 254 252 251 250 251 252 252 252 251 252 252 253 254 253 253 254 254 254 254 255 256 257
274 275 276 276 277 277 277 277 276 276 276 277 276 275 273 272 272 272 272 273 274 274 274 274 275 275 275 275 276 276 276 277 276 276 275 274 274 273 272 272 272 272 272 272 272 272 271 269 266 262 259 256 253 251 250 247 246 247 248 248 248 249 249 250 251 251 251 252 252 252 253 254 255 256
274 275 276 277 277 276 276 276 277 277 277 276 275 274 273 273 273 274 275 276 276 276 276 276 276 276 277 277 277 278 277 276 276 276 276 276 276 276 275 275 274 273 272 272 272 272 271 269 266 262 258 255 252 250 248 244 242 243 245 246 247 247 247 248 248 249 249 250 250 251 252 252 253 254
274 275 275 275 275 276 277 277 278 278 277 276 274 274 274 275 275 276 277 276 276 276 277 277 277 277 277 277 277 277 276 276 277 278 278 278 278 277 276 275 273 272 271 271 271 270 269 268 265 262 259 256 253 250 248 245 243 244 245 247 247 247 246 247 247 248 248 248 248 249 249 250 251 252
273 274 274 275 276 277 278 279 279 279 278 276 276 275 276 277 277 277 276 276 275 275 276 276 276 276 276 276 276 277 278 279 280 281 280 279 278 276 275 274 272 271 270 269 268 268 267 265 263 261 259 256 254 251 248 246 245 244 245 247 247 247 247 246 246 246 247 247 247 248 248 249 250 252
272 273 274 276 277 278 279 280 281 280 278 277 278 278 277 277 276 276 275 274 274 274 274 274 275 275 276 277 277 278 280 281 281 280 278 277 276 276 276 275 273 272 270 269 267 266 265 264 263 261 259 257 254 252 249 247 245 243 243 245 246 246 246 245 245 244 245 245 246 247 247 248 249 250
271 273 275 276 277 279 280 281 280 279 278 279 279 278 277 275 274 273 272 272 272 273 273 273 274 276 276 277 277 279 279 278 277 276 275 275 275 275 275 275 275 274 273 272 269 267 266 265 264 262 261 259 256 254 252 249 246 243 243 244 245 246 246 245 245 245 245 246 246 247 247 247 248 250
271 272 274 275 277 278 279 279 278 278 279 279 278 276 274 272 271 270 270 270 271 271 272 272 273 273 273 274 275 275 274 272 271 271 272 272 272 272 272 273 274 275 275 274 273 271 269 267 266 264 263 261 258 256 254 250 247 245 244 244 246 247 247 248 248 247 247 247 247 247 248 248 249 249
269 271 272 274 275 276 277 276 276 277 277 276 274 272 270 268 267 267 267 268 268 268 269 269 268 268 270 272 272 272 270 269 269 270 271 272 272 272 272 272 272 272 273 273 273 272 271 269 267 265 263 262 260 257 254 251 248 246 245 244 245 246 248 249 249 249 248 247 248 249 249 248 248 249
Height
10575 10576 10577 10579 10580 10581 10582 10584 10585 10587 10589 10591 10592 10594 10596 10598 10600 10602 10604 10604 10605 10606 10608 10608 10610 10612 10614 10616 10617 10618 10620 10622 10624 10625 10627 10628 10629 10631 10633 10634 10635 10636 10638 10639 10641 10643 10646 10648 10650 10652 10654 10656 10656 10657 10659 10659 10659 10660 10661 10661 10660 10659 10659 10658 10659 10661 10661 10662 10663 10663 10663 10664 10664 10665
10571 10572 10573 10574 10575 10576 10578 10579 10580 10582 10583 10585 10586 10588 10590 10592 10594 10596 10598 10599 10600 10601 10602 10603 10604 10606 10608 10610 10611 10613 10614 10616 10617 10619 10621 10622 10623 10625 10626 10627 10629 10630 10631 10632 10634 10636 10638 10641 10643 10646 10648 10649 10650 10651 10652 10653 10654 10654 10654 10654 10654 10653 10654 10653 10653 10655 10657 10658 10659 10658 10657 10658 10659 10660
10567 10568 10568 10569 10570 10571 10572 10574 10575 10576 10577 10579 10580 10582 10583 10585 10587 10590 10592 10593 10594 10595 10597 10598 10599 10600 10602 10604 10605 10606 10608 10610 10611 10613 10614 10616 10617 10618 10620 10621 10622 10624 10625 10626 10627 10629 10631 10634 10636 10638 10640 10642 10643 10644 10645 10646 10647 10647 10647 10647 10648 10647 10648 10648 10647 10649 10652 10654 10653 10652 10652 10653 10654 10656
10562 10563 10564 10565 10565 10566 10567 10568 10569 10571 10572 10573 10574 10576 10577 10579 10580 10583 10585 10587 10588 10589 10590 10592 10593 10594 10596 10597 10599 10600 10601 10603 10605 10606 10608 10609 10610 10612 10613 10615 10616 10617 10619 10620 10621 10622 10624 10626 10628 10630 10632 10634 10636 10637 10638 10639 10640 10641 10641 10641 10642 10642 10642 10642 10642 10644 10646 10646 10646 10647 10648 10647 10649 10651
10557 10558 10558 10559 10560 10561 10562 10563 10564 10565 10566 10568 10569 10570 10571 10572 10573 10575 10577 10579 10581 10582 10584 10585 10586 10588 10589 10591 10592 10593 10595 10596 10597 10599 10600 10601 10603 10604 10606 10608 10609 10611 10612 10613 10614 10615 10617 10619 10621 10623 10625 10626 10628 10629 10631 10632 10633 10634 10635 10635 10636 10636 10636 10637 10637 10638 10640 10639 10639 10640 10642 10642 10644 10646
10551 10552 10552 10553 10554 10556 10557 10558 10559 10560 10561 10562 10563 10564 10565 10566 10567 10568 10569 10571 10573 10575 10577 10578 10579 10580 10582 10584 10585 10587 10588 10589 10590 10591 10593 10594 10595 10596 10598 10601 10602 10604 10605 10607 10608 10609 10610 10611 10613 10615 10617 10619 10620 10622 10623 10624 10625 10626 10628 10629 10629 10630 10630 10631 10632 10633 10634 10634 10634 10634 10635 10636 10639 10640
10545 10545 10546 10547 10548 10549 10551 10552 10553 10554 10555 10556 10557 10557 10558 10559 10560 10561 10562 10564 10565 10567 10569 10570 10572 10573 10575 10576 10578 10579 10581 10582 10583 10584 10585 10586 10587 10589 10591 10593 10595 10597 10598 10600 10602 10603 10603 10604 10606 10608 10610 10611 10613 10614 10615 10616 10617 10619 10620 10622 10623 10624 10624 10625 10626 10627 10628 10628 10629 10629 10629 10629 10631 10633
10538 10539 10540 10541 10542 10543 10544 10545 10547 10548 10549 10550 10551 10551 10552 10552 10553 10554 10555 10556 10558 10560 10561 10563 10564 10565 10567 10569 10570 10572 10573 10574 10576 10577 10578 10579 10580 10582 10583 10585 10587 10589 10591 10593 10595 10596 10596 10597 10598 10600 10602 10604 10605 10607 10608 10609 10610 10611 10613 10615 10617 10618 10618 10618 10619 10620 10621 10622 10623 10623 10623 10624 10624 10625
10532 10533 10534 10535 10536 10537 10538 10539 10540 10541 10542 10543 10544 10544 10545 10546 10546 10547 10548 10549 10550 10552 10554 10555 10556 10557 10559 10561 10563 10564 10565 10566 10568 10569 10570 10572 10573 10574 10576 10577 10580 10582 10584 10585 10587 10587 10588 10589 10591 10593 10594 10596 10598 10600 10601 10602 10603 10604 10606 10608 10609 10610 10611 10611 10612 10613 10614 10615 10616 10617 10617 10617 10618 10618
10525 10526 10527 10527 10529 10530 10531 10531 10532 10532 10534 10535 10536 10536 10537 10538 10539 10540 10541 10542 10543 10544 10546 10548 10549 10550 10552 10553 10555 10557 10557 10558 10560 10560 10561 10563 10565 10566 10567 10569 10572 10574 10576 10577 10577 10578 10580 10581 10583 10585 10586 10589 10590 10592 10593 10594 10595 10597 10598 10600 10601 10602 10603 10604 10604 10605 10606 10607 10608 10609 10609 10609 10610 10611
10517 10519 10519 10520 10520 10521 10522 10522 10523 10524 10526 10527 10527 10528 10529 10530 10531 10532 10533 10534 10535 10536 10538 10540 10541 10543 10544 10545 10546 10548 10549 10550 10551 10552 10553 10555 10556 10557 10558 10561 10564 10566 10567 10567 10568 10570 10572 10573 10574 10576 10577 10580 10582 10583 10584 10585 10586 10588 10589 10591 10592 10593 10594 10595 10596 10597 10598 10599 10599 10600 10601 10601 10602 10603
10508 10510 10510 10511 10511 10511 10512 10513 10514 10516 10518 10518 10518 10519 10521 10521 10522 10523 10524 10526 10527 10528 10529 10531 10532 10534 10536 10537 10538 10539 10541 10542 10542 10544 10545 10545 10547 10549 10549 10551 10555 10557 10557 10558 10559 10561 10562 10563 10564 10566 10568 10570 10572 10573 10575 10576 10577 10578 10580 10581 10583 10584 10585 10586 10587 10588 10589 10590 10591 10591 10592 10593 10593 10594
10499 10500 10500 10500 10500 10501 10502 10504 10505 10507 10508 10508 10508 10510 10511 10512 10513 10515 10516 10518 10519 10520 10520 10522 10523 10524 10526 10528 10529 10529 10532 10533 10533 10535 10536 10536 10537 10539 10540 10541 10545 10547 10547 10548 10549 10550 10552 10554 10554 10556 10558 10560 10562 10564 10565 10567 10568 10569 10570 10571 10572 10574 10575 10576 10578 10579 10580 10581 10582 10583 10583 10584 10585 10586
10489 10489 10489 10489 10490 10491 10492 10495 10496 10497 10497 10497 10498 10500 10501 10502 10503 10505 10507 10509 10510 10511 10511 10512 10513 10514 10516 10518 10519 10520 10522 10524 10524 10525 10527 10527 10527 10529 10530 10530 10533 10537 10538 10537 10538 10538 10542 10545 10545 10546 10548 10550 10552 10554 10555 10556 10558 10558 10559 10560 10561 10563 10564 10566 10567 10569 10570 10572 10573 10574 10575 10575 10576 10577
10480 10478 10477 10478 10479 10480 10483 10485 10485 10485 10486 10486 10488 10490 10491 10491 10493 10495 10497 10499 10501 10502 10502 10502 10503 10504 10505 10506 10509 10511 10512 10514 10515 10515 10516 10518 10518 10519 10520 10519 10521 10526 10529 10528 10528 10527 10530 10535 10536 10535 10537 10539 10541 10543 10546 10546 10547 10548 10549 10550 10551 10552 10553 10554 10556 10557 10558 10560 10562 10563 10564 10565 10566 10567
10469 10467 10467 10469 10469 10470 10473 10476 10475 10475 10476 10477 10478 10479 10480 10480 10482 10484 10487 10488 10490 10492 10492 10492 10492 10494 10495 10495 10497 10500 10502 10503 10504 10505 10506 10508 10509 10509 10510 10510 10509 10512 10517 10521 10520 10517 10517 10523 10527 10525 10524 10527 10531 10533 10535 10535 10536 10537 10538 10540 10541 10542 10543 10544 10544 10545 10546 10548 10549 10551 10553 10554 10555 10556
10457 10458 10460 10461 10461 10461 10464 10467 10465 10466 10467 10467 10467 10469 10470 10471 10472 10473 10475 10477 10479 10481 10481 10481 10481 10482 10485 10485 10485 10488 10492 10492 10493 10494 10495 10497 10499 10499 10499 10501 10500 10498 10502 10510 10513 10510 10505 10509 10516 10516 10512 10514 10520 10523 10524 10524 10524 10525 10527 10529 10530 10531 10533 10534 10534 10535 10536 10536 10538 10540 10542 10544 10545 10546
10447 10446 10448 10450 10451 10452 10455 10456 10455 10456 10456 10456 10457 10459 10461 10461 10462 10462 10463 10465 10468 10469 10469 10470 10470 10470 10473 10475 10474 10475 10479 10482 10482 10483 10484 10485 10487 10489 10489 10491 10490 10488 10489 10496 10504 10503 10496 10494 10502 10506 10502 10503 10509 10513 10514 10513 10513 10514 10515 10516 10518 10519 10520 10522 10523 10524 10525 10525 10526 10528 10530 10533 10535 10536
10436 10434 10435 10438 10439 10440 10444 10447 10446 10446 10445 10445 10447 10449 10450 10450 10451 10452 10453 10455 10457 10457 10457 10458 10459 10459 10460 10463 10464 10464 10465 10469 10471 10472 10474 10474 10475 10478 10480 10480 10480 10478 10478 10482 10490 10495 10489 10483 10488 10493 10492 10493 10497 10500 10503 10503 10503 10503 10504 10504 10506 10507 10508 10509 10511 10512 10513 10514 10515 10517 10519 10521 10523 10525
10426 10425 10425 10427 10427 10428 10433 10435 10435 10434 10433 10435 10437 10438 10439 10440 10441 10441 10443 10444 10445 10446 10446 10447 10448 10448 10449 10451 10453 10453 10453 10456 10459 10462 10464 10463 10464 10467 10470 10470 10468 10467 10467 10468 10475 10483 10481 10475 10476 10480 10481 10483 10485 10486 10490 10492 10493 10493 10494 10494 10494 10495 10496 10497 10499 10500 10501 10502 10503 10505 10506 10509 10511 10513
10417 10417 10416 10416 10416 10418 10421 10423 10423 10422 10422 10424 10427 10428 10428 10429 10429 10429 10430 10431 10432 10434 10435 10436 10436 10438 10438 10438 10440 10441 10441 10442 10445 10449 10452 10451 10452 10456 10459 10459 10457 10456 10455 10455 10459 10468 10472 10468 10466 10468 10469 10471 10474 10475 10476 10479 10481 10483 10484 10485 10485 10485 10485 10486 10487 10488 10489 10490 10491 10492 10494 10497 10499 10501
10408 10408 10408 10407 10407 10408 10409 10410 10410 10411 10412 10413 10416 10416 10417 10417 10417 10416 10417 10417 10418 10420 10422 10423 10424 10425 10426 10427 10427 10428 10429 10430 10431 10435 10439 10439 10440 10444 10446 10447 10447 10445 10443 10440 10443 10452 10459 10458 10456 10457 10458 10459 10461 10463 10464 10465 10468 10471 10473 10474 10474 10474 10474 10475 10475 10476 10477 10479 10480 10482 10483 10486 10488 10491
10397 10397 10398 10398 10397 10397 10397 10398 10399 10400 10401 10403 10404 10404 10405 10405 10404 10403 10403 10404 10405 10406 10408 10409 10411 10413 10414 10415 10416 10416 10416 10417 10418 10420 10424 10426 10428 10430 10432 10434 10435 10436 10432 10426 10428 10437 10444 10446 10447 10448 10448 10448 10447 10449 10452 10453 10454 10457 10460 10462 10463 10463 10463 10464 10464 10465 10466 10467 10469 10471 10473 10475 10477 10479
10386 10386 10386 10386 10386 10386 10385 10385 10387 10389 10390 10391 10392 10392 10392 10392 10391 10390 10391 10391 10392 10393 10394 10396 10398 10399 10400 10401 10403 10403 10404 10404 10405 10406 10409 10411 10414 10417 10419 10419 10422 10424 10421 10415 10414 10421 10427 10430 10434 10436 10438 10438 10436 10435 10437 10440 10441 10442 10445 10448 10451 10453 10453 10453 10452 10453 10453 10455 10457 10458 10461 10463 10465 10467
10374 10374 10374 10374 10374 10374 10374 10375 10376 10377 10377 10377 10378 10378 10378 10378 10378 10379 10378 10378 10379 10380 10382 10383 10384 10385 10386 10387 10388 10390 10390 10391 10391 10391 10393 10395 10398 10402 10404 10405 10407 10410 10410 10404 10402 10407 10411 10414 10417 10421 10423 10427 10427 10424 10423 10426 10428 10429 10430 10433 10436 10440 10441 10442 10442 10441 10441 10442 10444 10445 10447 10450 10453 10455
10362 10363 10363 10363 10362 10362 10363 10364 10364 10364 10363 10362 10363 10363 10364 10365 10366 10366 10365 10365 10367 10369 10370 10371 10371 10371 10372 10373 10374 10375 10376 10376 10376 10377 10378 10379 10381 10384 10388 10390 10392 10395 10395 10392 10391 10394 10397 10398 10400 10403 10407 10411 10414 10414 10413 10413 10412 10413 10416 10420 10422 10424 10427 10429 10429 10429 10429 10429 10430 10431 10433 10437 10440 10442
10351 10352 10352 10352 10351 10351 10351 10351 10351 10349 10348 10349 10350 10350 10351 10351 10351 10352 10353 10354 10356 10357 10357 10358 10359 10359 10359 10360 10360 10360 10360 10360 10361 10362 10363 10363 10364 10366 10369 10373 10376 10379 10380 10379 10378 10379 10383 10385 10385 10387 10390 10394 10397 10400 10401 10400 10398 10397 10400 10405 10408 10409 10412 10414 10416 10417 10417 10416 10416 10418 10421 10424 10427 10430
10341 10341 10341 10341 10340 10340 10340 10339 10338 10337 10336 10337 10338 10339 10339 10339 10338 10339 10341 10342 10343 10345 10345 10345 10346 10346 10345 10345 10344 10344 10344 10345 10345 10346 10347 10347 10347 10349 10352 10355 10358 10361 10363 10364 10364 10365 10368 10371 10373 10373 10375 10378 10382 10385 10386 10387 10385 10383 10384 10388 10392 10394 10396 10398 10401 10403 10402 10402 10404 10407 10410 10412 10413 10416
10331 10331 10330 10330 10329 10328 10328 10327 10326 10326 10326 10326 10327 10327 10327 10327 10327 10328 10329 10330 10332 10333 10333 10333 10333 10332 10331 10329 10329 10329 10329 10329 10329 10330 10331 10332 10332 10333 10336 10339 10341 10344 10347 10349 10351 10352 10354 10357 10359 10360 10361 10363 10365 10368 10370 10371 10371 10370 10370 10372 10376 10379 10381 10383 10384 10385 10386 10389 10392 10396 10398 10399 10400 10402
10320 10320 10319 10318 10317 10316 10316 10316 10316 10316 10316 10316 10316 10316 10316 10316 10316 10317 10318 10319 10320 10320 10320 10320 10320 10318 10316 10315 10315 10315 10315 10315 10315 10315 10316 10318 10319 10320 10323 10325 10327 10329 10331 10333 10336 10338 10341 10343 10344 10346 10347 10348 10349 10351 10353 10355 10356 10355 10355 10357 10361 10364 10366 10367 10368 10369 10371 10375 10378 10381 10384 10386 10388 10389
10308 10308 10307 10307 10307 10307 10307 10307 10307 10307 10306 10306 10307 10307 10307 10307 10307 10307 10308 10308 10308 10308 10308 10308 10306 10305 10303 10303 10302 10301 10301 10301 10301 10302 10303 10306 10307 10308 10309 10312 10314 10314 10315 10317 10319 10322 10325 10328 10329 10330 10331 10333 10333 10334 10335 10338 10340 10340 10338 10338 10343 10348 10352 10353 10354 10356 10358 10360 10363 10365 10369 10372 10373 10374
10297 10296 10296 10297 10297 10298 10298 10298 10298 10298 10298 10298 10298 10298 10298 10298 10298 10298 10298 10298 10298 10297 10297 10296 10294 10293 10291 10290 10289 10288 10289 10290 10290 10291 10293 10295 10296 10296 10298 10300 10301 10301 10301 10301 10302 10304 10308 10311 10312 10314 10315 10317 10318 10319 10319 10322 10324 10325 10322 10321 10324 10331 10337 10340 10342 10343 10344 10347 10349 10351 10353 10357 10358 10360
10286 10286 10287 10288 10288 10289 10289 10289 10290 10289 10289 10289 10290 10290 10289 10289 10289 10289 10289 10288 10287 10287 10286 10284 10283 10281 10280 10279 10279 10280 10281 10282 10281 10282 10283 10285 10286 10286 10287 10288 10288 10287 10287 10287 10287 10289 10292 10294 10297 10299 10302 10303 10304 10304 10305 10307 10308 10307 10307 10308 10312 10317 10321 10324 10327 10330 10332 10334 10336 10338 10340 10342 10344 10345
10278 10278 10279 10280 10280 10281 10281 10282 10281 10281 10281 10281 10281 10281 10281 10281 10281 10280 10279 10278 10277 10276 10274 10273 10273 10273 10273 10273 10273 10273 10273 10273 10272 10272 10273 10274 10275 10275 10275 10275 10275 10274 10275 10276 10276 10276 10278 10281 10284 10287 10289 10290 10291 10290 10291 10292 10292 10292 10295 10299 10302 10304 10306 10308 10312 10315 10319 10322 10324 10325 10327 10329 10330 10331
10271 10272 10272 10272 10273 10273 10273 10273 10273 10273 10274 10273 10273 10273 10272 10272 10272 10271 10269 10268 10267 10266 10266 10266 10266 10266 10267 10266 10266 10265 10264 10264 10263 10263 10263 10264 10265 10265 10264 10264 10264 10264 10265 10266 10266 10266 10268 10270 10273 10276 10277 10277 10278 10278 10277 10278 10280 10282 10285 10288 10290 10292 10294 10295 10298 10301 10304 10307 10310 10312 10315 10316 10317 10318
10265 10265 10265 10265 10265 10265 10265 10265 10265 10265 10266 10265 10265 10264 10263 10262 10262 10262 10261 10260 10259 10260 10260 10260 10260 10259 10258 10258 10257 10256 10256 10256 10255 10255 10255 10255 10256 10256 10255 10255 10254 10254 10255 10256 10256 10257 10259 10260 10262 10264 10265 10266 10267 10265 10265 10269 10273 10274 10275 10277 10279 10280 10281 10282 10285 10289 10291 10293 10297 10300 10303 10305 10305 10306
10258 10258 10258 10258 10258 10258 10258 10258 10258 10258 10258 10258 10257 10256 10255 10254 10253 10253 10253 10254 10254 10254 10254 10253 10252 10251 10250 10250 10250 10249 10249 10248 10248 10247 10247 10247 10247 10247 10247 10247 10247 10246 10247 10247 10247 10248 10250 10250 10252 10253 10254 10255 10255 10254 10255 10262 10266 10265 10264 10265 10266 10267 10269 10272 10274 10277 10280 10283 10286 10289 10291 10293 10294 10296
10251 10252 10252 10252 10251 10251 10251 10251 10251 10251 10251 10251 10250 10249 10248 10247 10246 10246 10247 10248 10247 10246 10246 10245 10245 10244 10243 10242 10242 10242 10242 10241 10240 10240 10240 10239 10239 10239 10239 10239 10240 10240 10239 10239 10240 10241 10241 10242 10243 10244 10244 10244 10244 10244 10248 10255 10257 10254 10253 10254 10255 10258 10261 10263 10265 10268 10270 10273 10276 10279 10280 10282 10285 10286
10245 10245 10245 10245 10245 10245 10244 10245 10245 10246 10245 10245 10244 10242 10242 10241 10241 10241 10241 10241 10240 10239 10238 10238 10238 10237 10236 10236 10236 10235 10235 10234 10234 10233 10233 10233 10233 10233 10233 10233 10233 10233 10232 10233 10233 10233 10234 10234 10234 10235 10235 10235 10235 10237 10241 10245 10245 10244 10245 10246 10248 10251 10254 10255 10257 10259 10262 10264 10267 10270 10271 10273 10275 10277
10240 10239 10239 10239 10238 10238 10239 10239 10239 10239 10239 10238 10237 10237 10236 10235 10235 10235 10235 10234 10233 10232 10232 10231 10231 10231 10230 10230 10230 10229 10228 10228 10228 10228 10228 10228 10227 10227 10227 10227 10227 10227 10227 10227 10227 10227 10227 10227 10227 10227 10227 10228 10229 10232 10234 10235 10237 10239 10240 10240 10241 10244 10247 10249 10251 10253 10254 10256 10259 10261 10263 10265 10266 10267
10234 10233 10233 10232 10233 10233 10233 10233 10233 10233 10232 10231 10231 10231 10230 10230 10229 10229 10229 10228 10227 10227 10226 10226 10226 10225 10225 10224 10224 10224 10223 10224 10224 10224 10223 10223 10222 10222 10222 10222 10222 10222 10222 10222 10222 10222 10222 10221 10221 10222 10222 10223 10224 10225 10227 10229 10232 10234 10234 10234 10235 10238 10240 10242 10244 10246 10247 10249 10251 10253 10255 10257 10258 10259
10227 10227 10227 10227 10227 10227 10227 10227 10227 10226 10226 10226 10225 10225 10225 10224 10224 10223 10223 10222 10222 10222 10222 10221 10221 10220 10220 10219 10219 10219 10220 10220 10220 10219 10219 10218 10218 10218 10218 10217 10217 10217 10217 10218 10218 10218 10217 10217 10217 10217 10217 10218 10218 10220 10221 10224 10226 10228 10228 10227 10228 10231 10233 10235 10236 10238 10240 10242 10244 10246 10248 10250 10250 10251
10221 10222 10222 10222 10221 10221 10221 10221 10221 10220 10220 10220 10220 10220 10220 10219 10219 10218 10218 10218 10217 10218 10217 10217 10217 10216 10216 10215 10216 10216 10217 10217 10216 10215 10215 10215 10215 10214 10214 10213 10213 10213 10213 10213 10213 10213 10213 10213 10213 10213 10213 10214 10214 10215 10217 10219 10221 10222 10222 10222 10223 10225 10226 10228 10230 10232 10234 10236 10238 10240 10241 10243 10245 10246
10217 10217 10217 10216 10216 10216 10216 10216 10215 10215 10215 10216 10215 10215 10215 10214 10214 10214 10214 10214 10214 10214 10214 10214 10213 10213 10212 10212 10213 10213 10213 10213 10213 10212 10212 10211 10211 10211 10210 10210 10210 10210 10209 10209 10209 10209 10209 10209 10209 10209 10209 10210 10210 10212 10213 10215 10216 10217 10218 10219 10219 10220 10221 10223 10225 10228 10230 10232 10233 10234 10236 10238 10239 10240
10212 10212 10212 10212 10212 10212 10211 10211 10210 10211 10211 10211 10211 10210 10210 10210 10210 10210 10210 10210 10210 10210 10210 10210 10210 10210 10210 10210 10210 10210 10210 10209 10209 10209 10209 10208 10208 10208 10208 10207 10207 10207 10206 10206 10206 10206 10206 10206 10206 10206 10206 10206 10207 10208 10209 10210 10212 10213 10214 10215 10216 10217 10218 10219 10222 10224 10226 10227 10228 10230 10231 10232 10233 10234